Weather History for Akron Canton, OH

Change the Weather History Date:

Wednesday, November 7, 2012

  Actual Average Record
Temperature  
Mean Temperature 36 °F 45 °F  
Max Temperature 45 °F 53 °F 76 °F (1938)
Min Temperature 27 °F 37 °F 18 °F (1971)
Degree Days  
Heating Degree Days 29 20  
Month to date heating degree days 195 135  
Since 1 July heating degree days 730 690  
Cooling Degree Days 0 0  
Month to date cooling degree days 0 0  
Year to date cooling degree days 1046 652  
Moisture  
Dew Point 24 °F    
Average Humidity 63    
Maximum Humidity 81    
Minimum Humidity 45    
Precipitation  
Precipitation 0.00 in 0.10 in 0.80 in (1972)
Month to date precipitation 0.06 0.76  
Year to date precipitation 33.03 34.24  
Snow  
Snow 0.00 in 0.10 in - ()
Month to date snowfall T 0.4  
Since 1 July snowfall T 0.8  
Since 1 September snowfall T 0.8  
Snow Depth 0.00 in    
Sea Level Pressure  
Sea Level Pressure 30.01 in    
Wind  
Wind Speed 7 mph (NE)    
Max Wind Speed 13 mph    
Max Gust Speed 17 mph    
Visibility 7 miles    
Events      
T = Trace of Precipitation, MM = Missing Value Source: NWS Daily Summary

Daily Weather History Graph

Daily Weather History Graph

Search for Another Location

Airport:

Trip Planner

Search our weather history database for the weather conditions in past years. The results will help you decide how hot, cold, wet, or windy it might be!

Date:

Astronomy

Nov. 07, 2012 Rise Set
Actual Time 7:04 AM EST 5:14 PM EST
Civil Twilight 6:35 AM EST 5:43 PM EST
Nautical Twilight 6:02 AM EST 6:16 PM EST
Astronomical Twilight 5:30 AM EST 6:48 PM EST
Moon No Moon Rise 1:25 PM EST (11/7)
Length of Visible Light 11h 08m
Length of Day
10h 10m
Last Quarter, 43% of the Moon is Illuminated
Nov 7
Last Quarter
Nov 13
New
Nov 20
First Quarter
Nov 28
Full
Dec 6
Last Quarter

Hourly Weather History & Observations

Time (EST) Temp. Windchill Dew Point Humidity Pressure Visibility Wind Dir Wind Speed Gust Speed Precip Events Conditions
12:51 AM 30.0 °F 23.2 °F 23.0 °F 75% 29.96 in 7.0 mi East 6.9 mph - N/A   Clear
1:51 AM 28.9 °F 21.9 °F 23.0 °F 78% 29.96 in 7.0 mi East 6.9 mph - N/A   Clear
2:51 AM 30.9 °F 24.3 °F 23.0 °F 72% 29.96 in 7.0 mi East 6.9 mph - N/A   Clear
3:51 AM 30.0 °F 23.2 °F 24.1 °F 79% 29.95 in 7.0 mi ENE 6.9 mph - N/A   Mostly Cloudy
4:51 AM 28.9 °F 22.8 °F 23.0 °F 78% 29.95 in 6.0 mi ENE 5.8 mph - N/A   Haze
5:51 AM 28.4 °F 21.2 °F 21.2 °F 74% 29.93 in 6.0 mi NE 6.9 mph - N/A   Haze
6:51 AM 27.0 °F 19.5 °F 21.0 °F 78% 29.98 in 6.0 mi ENE 6.9 mph - N/A   Haze
7:51 AM 28.0 °F 20.8 °F 21.9 °F 78% 29.99 in 6.0 mi NE 6.9 mph - N/A   Haze
8:51 AM 30.9 °F 23.5 °F 24.1 °F 76% 30.02 in 4.0 mi ENE 8.1 mph - N/A   Haze
9:51 AM 36.0 °F 29.0 °F 26.1 °F 67% 30.02 in 6.0 mi ENE 9.2 mph - N/A   Haze
10:51 AM 39.9 °F 33.9 °F 26.1 °F 58% 30.01 in 6.0 mi ENE 9.2 mph - N/A   Haze
11:51 AM 43.0 °F 37.7 °F 26.1 °F 51% 30.00 in 7.0 mi ENE 9.2 mph - N/A   Mostly Cloudy
12:51 PM 42.1 °F 36.6 °F 25.0 °F 51% 29.99 in 8.0 mi ENE 9.2 mph - N/A   Mostly Cloudy
1:51 PM 43.0 °F 38.2 °F 25.0 °F 49% 29.99 in 8.0 mi ENE 8.1 mph - N/A   Mostly Cloudy
2:51 PM 44.1 °F 39.5 °F 25.0 °F 47% 29.99 in 8.0 mi NNE 8.1 mph - N/A   Overcast
3:51 PM 43.0 °F 40.3 °F 25.0 °F 49% 30.01 in 8.0 mi NNE 4.6 mph - N/A   Mostly Cloudy
4:51 PM 39.9 °F 35.1 °F 26.1 °F 58% 30.03 in 7.0 mi NE 6.9 mph - N/A   Mostly Cloudy
5:51 PM 37.4 °F 33.8 °F 24.8 °F 60% 30.02 in 8.0 mi NE 4.6 mph - N/A   Mostly Cloudy
6:51 PM 35.1 °F 31.0 °F 24.1 °F 64% 30.07 in 8.0 mi NE 4.6 mph - N/A   Mostly Cloudy
7:51 PM 33.1 °F 26.9 °F 23.0 °F 66% 30.08 in 8.0 mi NNE 6.9 mph - N/A   Mostly Cloudy
8:51 PM 32.0 °F 26.4 °F 23.0 °F 69% 30.09 in 7.0 mi North 5.8 mph - N/A   Mostly Cloudy
9:51 PM 32.0 °F 25.6 °F 23.0 °F 69% 30.09 in 8.0 mi North 6.9 mph - N/A   Mostly Cloudy
10:51 PM 30.9 °F 24.3 °F 23.0 °F 72% 30.10 in 8.0 mi North 6.9 mph - N/A   Scattered Clouds
11:51 PM 30.0 °F 24.1 °F 21.9 °F 72% 30.10 in 8.0 mi North 5.8 mph - N/A   Partly Cloudy